Regional Weather Roundup
Issued by NWS

Home | Current Version | Previous Version | Graphics & Text | Print | Product List | Glossary On
Versions: 1 2 3 4 5 6 7 8 9 10 11 12 13 14 15 16 17 18 19 20 21 22 23 24 25 26 27 28 29 30 31 32 33 34 35 36 37 38 39 40 41 42 43 44 45 46 47 48 49 50
000
ASUS43 KMPX 261101
RWRMN
WEATHER ROUNDUP FOR MINNESOTA
NATIONAL WEATHER SERVICE TWIN CITIES/CHANHASSEN MN
600 AM CDT FRI AUG 26 2016


NOTE: "FAIR" INDICATES FEW OR NO CLOUDS BELOW 12,000 FEET WITH NO
SIGNIFICANT WEATHER AND/OR OBSTRUCTIONS TO VISIBILITY. N/A MEANS
CURRENT SKY AND/OR WEATHER CONDITIONS ARE NOT AVAILABLE.

MNZ060>063-068>070-261200-
   Twin Cities Metro

CITY           SKY/WX    TMP DP  RH WIND       PRES   REMARKS
TWIN CITIES    FAIR      58  54  86 CALM      30.15S
ST PAUL        FAIR      57  54  89 CALM      30.15S
CRYSTAL        FAIR      54  51  90 CALM      30.14S
BLAINE         FAIR      55  55 100 CALM      30.15S
LAKEVILLE      FAIR      52  52 100 CALM      30.16R
EDEN PRAIRIE   FAIR      54  51  90 SW3       30.14S
LAKEVILLE      FAIR      52  52 100 CALM      30.16R
SOUTH ST PAUL  FAIR      56  54  94 CALM      30.15S
LAKE ELMO      FAIR      52  52 100 CALM      30.16S
$$
MNZ001>005-007-008-013>017-022>024-027-028-261200-
   Northwest Minnesota

CITY           SKY/WX    TMP DP  RH WIND       PRES   REMARKS
BEMIDJI        FAIR      49  48  96 S7        30.11R
HALLOCK        FAIR      46  45  93 SE6       30.06R
ROSEAU         FAIR      45  39  81 CALM      30.07S
WARROAD        FAIR      46  45  93 SW5       30.07S
THIEF RVR FALL FAIR      48  47  96 S6        30.10R
CROOKSTON      FAIR      45  45 100 SE7       30.09R
FOSSTON        FAIR      46  45  93 S7        30.12R
DETROIT LAKES  FAIR      54  50  87 SW5       30.13F
MOORHEAD       FAIR      48  46  93 S5        30.12F
PARK RAPIDS    FAIR      51  49  92 SW5       30.12S
MAHNOMEN       FAIR      49  47  94 S6        30.11S
$$
MNZ006-009>011-018-025>026-261200-
   North Central Minnesota

CITY           SKY/WX    TMP DP  RH WIND       PRES   REMARKS
BAUDETTE       FAIR      47  45  93 CALM      30.07S
FLAG ISLAND    FAIR      55  48  76 CALM      30.05R
INTL FALLS     FAIR      41  41 100 CALM      30.09S
WASKISH        FAIR      46  46 100 CALM      30.09S
BIG FORK       FAIR      46  45  93 CALM      30.12R
LONGVILLE      FAIR      46  46 100 CALM      30.12S
GRAND RAPIDS   FAIR      50  50 100 CALM      30.13F
CRANE LAKE     FAIR      41  41 100 S1        30.12R
ORR            FAIR      48  46  93 CALM      30.09R
COOK           FOG       46  46 100 CALM      30.12R VSB 3/4
WALKER         FAIR      49  48  97 CALM      30.11F
$$
MNZ012-019>021-037-261200-
   Northeast Minnesota

CITY           SKY/WX    TMP DP  RH WIND       PRES   REMARKS
DULUTH         FAIR      54  52  93 W7        30.12R
ELY            FOG       46  45  93 CALM      30.11R VSB 1/2
HIBBING        FOG       47  47 100 CALM      30.11S VSB 1/2
EVELETH        FAIR      55  53  93 CALM      30.12S
DULUTH HARBOR  CLOUDY    61  55  82 W9        30.12R
TWO HARBORS    CLOUDY    61  55  82 CALM      30.09R
SILVER BAY     FAIR      54  54 100 CALM      30.08S
G MARAIS ARPRT CLOUDY    52  46  82 NW3       30.09R
$$
MNZ029>031-032-039>041-046>048-054>057-064-261200-
   West Central Minnesota

CITY           SKY/WX    TMP DP  RH WIND       PRES   REMARKS
FERGUS FALLS   FAIR      52  52 100 CALM      30.16S
WHEATON        FAIR      48  48 100 CALM      30.16S
MORRIS         FAIR      48  46  93 SE5       30.15R
ALEXANDRIA     FAIR      52  50  93 SW5       30.16S
ELBOW LAKE     FAIR      49  49  99 S5        30.15S
GLENWOOD       FAIR      52  52 100 CALM      30.16S FOG
APPLETON       FAIR      48  46  93 CALM      30.16R
BENSON         FOG       45  45 100 CALM      30.16S VSB 1/4
ORTONVILLE     FAIR      52  48  87 CALM      30.15S
MADISON        FAIR      50  48  93 CALM      30.16S FOG
WILLMAR        FOG       48  48 100 CALM      30.18R VSB 3/4
$$
MNZ033>034-036-042>043-049>051-058-059-261200-
   Central Minnesota

CITY           SKY/WX    TMP DP  RH WIND       PRES   REMARKS
ST CLOUD       FAIR      49  49 100 CALM      30.15S FOG
SAUK CENTRE    FOG       48  48  99 CALM      30.16S VSB 3/4
PAYNESVILLE    FOG       48  48 100 CALM      30.17R VSB 1/2
AITKIN         FOG       48  45  87 CALM      30.12R VSB 1/4
PINE RIVER     FAIR      46  46 100 CALM      30.16S FOG
BRAINERD       FAIR      49  49 100 S5        30.14S FOG
STAPLES        FAIR      50  50 100 CALM      30.14S
LONG PRAIRIE   FAIR      48  48 100 CALM      30.16R FOG
LITTLE FALLS   FOG       48  46  93 CALM      30.15S VSB 1/2
LITCHFIELD     FAIR      57  55  94 CALM      30.16S
BUFFALO        FAIR      55  53  92 CALM      30.16S
MAPLE LAKE     FAIR      56  54  94 CALM      30.16F
HUTCHINSON     FAIR      50  50 100 CALM      30.17S FOG
$$
MNZ037-044-045-052-053-261200-
   East Central Minnesota

CITY           SKY/WX    TMP DP  RH WIND       PRES   REMARKS
PRINCETON        N/A     50  48  93 CALM      30.15S FOG
MORA           FAIR      52  50  93 CALM      30.16S
CAMBRIDGE      FAIR      54  48  82 CALM      30.13S
RUSH CITY      MOCLDY    53  52  96 W3        30.14S
MOOSE LAKE     FAIR      50  48  93 CALM      30.11S
HINCKLEY       FOG       52  52 100 CALM      30.13F VSB 1
CLOQUET        FAIR      52  48  87 W5        30.13R
MCGREGOR         N/A     48  46  93 CALM      30.14S VSB 1
$$
MNZ071>073-080-081-089-090-097-098-261200-
   Southwest Minnesota

CITY           SKY/WX    TMP DP  RH WIND       PRES   REMARKS
MONTEVIDEO     FAIR      48  48 100 CALM      30.18S
GRANITE FALLS  FAIR      50  49  97 W5        30.18S
CANBY          FAIR      52  50  93 CALM      30.17S
MARSHALL       FAIR      51  49  92 SW5       30.17S
REDWOOD FALLS  FAIR      54  50  86 W3        30.16F
OLIVIA         FAIR      50  46  87 CALM      30.16S
PIPESTONE      FAIR      52  50  93 N2        30.17F
WINDOM         FAIR      52  50  93 CALM      30.18R
WORTHINGTON    FAIR      50  49  96 CALM      30.18S
JACKSON        FAIR      52  50  93 CALM      30.18S
TRACY          FAIR      53  52  94 W5        30.17F
$$
MNZ065>067-074>077-082>085-091>093-261200-
   South Central Minnesota

CITY           SKY/WX    TMP DP  RH WIND       PRES   REMARKS
MANKATO        FAIR      55  52  88 CALM      30.17S
NEW ULM          N/A     52  52 100 CALM      30.17R
FAIRMONT       FAIR      52  51  97 CALM      30.18R
GLENCOE        FAIR      54  54 100 CALM      30.15S
FARIBAULT      FAIR      52  52 100 CALM      30.17R
OWATONNA       FAIR      52  50  93 CALM      30.17S FOG
WASECA         FAIR      52  50  93 CALM      30.18S FOG
ALBERT LEA     FAIR      54  54 100 CALM      30.17S
$$
MNZ078>079-086>088-094>096-261200-
   Southeast Minnesota

CITY           SKY/WX    TMP DP  RH WIND       PRES   REMARKS
ROCHESTER      FAIR      53  52  96 W3        30.18R
RED WING       FAIR      54  52  94 CALM      30.15R FOG
STANTON        FAIR      52  50  93 CALM      30.15S
DODGE CENTER   FAIR      54  52  94 NW3       30.17S
WINONA         FAIR      54  54 100 CALM      30.16R
AUSTIN         FAIR      54  52  94 CALM      30.17R
PRESTON        FAIR      54  51  89 NW5       30.18R
$$
ABBREVIATIONS USED IN REMARKS
   TC - TEMPERATURES IN CELSIUS
  WCI - WIND CHILL INDEX
   HX - HEAT INDEX
  VSB - VISIBILITY
$$




USA.gov is the U.S. government's official web portal to all federal, state and local government web resources and services.